Location: Round Knob
(37.2473°N, 88.7376°W)
Time: 12:48:56
(UTC+00:00)

Tiangong - Visible Passes

Search period start: 20 September 2021 00:00
Search period end: 30 September 2021 00:00
Orbit: 380 x 386 km, 41.5° (Epoch: 18 September)

Date Brightness Start Highest point End Pass type
(mag) Time Alt. Az. Time Alt. Az. Time Alt. Az.
24 Sep 3.6 10:28:02 10° S 10:30:05 17° SE 10:32:11 10° ESE visible
25 Sep 1.6 11:02:49 10° SW 11:05:52 53° SSE 11:08:57 10° ENE visible
26 Sep 2.6 10:05:12 29° SSE 10:05:12 29° SSE 10:07:58 10° E visible
27 Sep 1.0 10:39:36 31° WSW 10:40:58 90° SE 10:44:06 10° ENE visible
28 Sep 3.5 09:41:43 23° E 09:41:43 23° E 09:43:08 10° ENE visible
28 Sep 1.7 11:13:51 10° W 11:16:52 43° N 11:19:54 10° ENE visible
29 Sep 1.2 10:15:51 60° N 10:15:51 60° N 10:18:53 10° ENE visible
